TimeCST,TemperatureF,Dew PointF,Humidity,Sea Level PressureIn,VisibilityMPH,Wind Direction,Wind SpeedMPH,Gust SpeedMPH,PrecipitationIn,Events,Conditions,WindDirDegrees,DateUTC
12:55 AM,-14.1,-18.6,80,30.12,10.0,West,8.1,-,N/A,,Clear,270,2012-12-29 06:55:00
1:55 AM,-9.8,-14.3,81,30.10,10.0,West,6.9,-,N/A,,Partly Cloudy,260,2012-12-29 07:55:00
2:55 AM,-14.3,-18.9,79,30.11,10.0,West,6.9,-,N/A,,Clear,270,2012-12-29 08:55:00
3:55 AM,-15.9,-20.6,79,30.13,10.0,West,8.1,-,N/A,,Clear,270,2012-12-29 09:55:00
4:55 AM,-13.4,-18.2,79,30.12,10.0,West,4.6,-,N/A,,Clear,260,2012-12-29 10:55:00
5:55 AM,-15.0,-20.0,78,30.13,10.0,WSW,5.8,-,N/A,,Clear,250,2012-12-29 11:55:00
6:55 AM,-14.6,-19.7,78,30.13,10.0,WSW,6.9,-,N/A,,Clear,250,2012-12-29 12:55:00
7:55 AM,-11.2,-15.7,80,30.14,10.0,West,5.8,-,N/A,,Clear,260,2012-12-29 13:55:00
7:57 AM,-11.2,-16.6,77,30.14,10.0,West,5.8,-,N/A,,Partly Cloudy,260,2012-12-29 13:57:00
8:06 AM,-11.2,-16.6,77,30.15,10.0,West,6.9,-,N/A,,Mostly Cloudy,270,2012-12-29 14:06:00
8:08 AM,-11.2,-16.6,77,30.15,10.0,West,6.9,-,N/A,,Mostly Cloudy,260,2012-12-29 14:08:00
8:55 AM,-3.8,-7.6,84,30.14,10.0,West,3.5,-,N/A,,Overcast,270,2012-12-29 14:55:00
9:55 AM,-2.9,-6.9,83,30.15,10.0,West,3.5,-,N/A,,Overcast,270,2012-12-29 15:55:00
10:38 AM,1.4,-4.0,78,30.15,10.0,Calm,Calm,-,N/A,,Overcast,0,2012-12-29 16:38:00
10:40 AM,1.4,-2.2,85,30.15,10.0,Calm,Calm,-,N/A,,Overcast,0,2012-12-29 16:40:00
10:55 AM,1.6,-2.0,85,30.15,10.0,Calm,Calm,-,N/A,,Overcast,0,2012-12-29 16:55:00
11:09 AM,1.4,-2.2,85,30.14,10.0,Calm,Calm,-,N/A,,Overcast,0,2012-12-29 17:09:00
11:41 AM,3.2,-0.4,85,30.14,6.0,SE,5.8,-,N/A,,Mostly Cloudy,130,2012-12-29 17:41:00
11:55 AM,3.6,0.1,86,30.14,10.0,SE,3.5,-,N/A,,Partly Cloudy,140,2012-12-29 17:55:00
12:55 PM,4.3,0.5,84,30.11,10.0,SSE,3.5,-,N/A,,Clear,150,2012-12-29 18:55:00
1:55 PM,8.6,2.7,77,30.08,10.0,South,3.5,-,N/A,,Scattered Clouds,170,2012-12-29 19:55:00
2:55 PM,9.3,2.8,75,30.08,10.0,SSE,4.6,-,N/A,,Clear,160,2012-12-29 20:55:00
3:55 PM,7.7,1.9,77,30.08,10.0,SE,4.6,-,N/A,,Clear,140,2012-12-29 21:55:00
4:55 PM,5.5,0.7,80,30.08,10.0,South,3.5,-,N/A,,Clear,190,2012-12-29 22:55:00
5:55 PM,6.8,3.6,87,30.08,10.0,WSW,8.1,-,N/A,,Clear,240,2012-12-29 23:55:00
6:55 PM,9.1,5.5,85,30.07,10.0,SW,9.2,-,N/A,,Clear,230,2012-12-30 00:55:00
7:55 PM,9.3,5.7,85,30.06,10.0,SW,8.1,-,N/A,,Clear,230,2012-12-30 01:55:00
8:55 PM,7.0,3.6,86,30.04,10.0,SW,6.9,-,N/A,,Partly Cloudy,220,2012-12-30 02:55:00
9:55 PM,18.9,12.9,78,30.01,10.0,Calm,Calm,-,N/A,,Clear,0,2012-12-30 03:55:00
10:55 PM,20.3,14.2,77,30.01,10.0,Variable,3.5,-,N/A,,Clear,0,2012-12-30 04:55:00
11:55 PM,23.7,17.1,76,29.99,10.0,West,11.5,-,N/A,,Mostly Cloudy,260,2012-12-30 05:55:00